PWSweather.com
Personal Weather Stations
Station Observations
WAREHAM1
West Wareham, MA 02576

West Wareham, MA 02576

Lat: 41.7961059, Lon: -70.775612

Elevation: 88

Station Type: Davis Vantage Vue

http://www.gateway2capecod.com

Latest ConditionsUpdated 10:59:37 AM EST Wednesday, Nov 26, 2014
Currently Today's Max Today's Min Today's Average
Temperature 41.2°F5.1°C 47.8°F8.8°C 41.2°F5.1°C 45.7°F7.6°C
Dew Point 39.4°F4.1°C 39.4°F4.1°C 33.6°F0.9°C 35.3°F1.8°C
Winds 0.9 mph NNW1.4 kmh NNW 2.0 mph E3.2 kmh E - 0.3 mph 0.5 kmh
Wind Gusts 4.9 mph7.9 kmh 6.9 mph11.1 kmh - -
Humidity 93% 93% 58% 67%
Pressure 30.11 in1019.6 mb 30.20 in1022.7 mb 30.11 in1019.6 mb -
Precipitation - 0.11 in2.8 mm - -
Hour Temp Dew Point Humidity Winds Wind Gusts Pressure Precip Precip Rate Daily Precip Total
10:59 AM 41.2°F5.1°C 39.4°F4.1°C 93% 0.9 mph NNW1.4 kmh NNW 4.9 mph7.9 kmh 30.11 in1019.6 mb 0.09 in2.3 mm 0.18 in/hr4.6 mm/hr 0.11 in2.8 mm
10:49 AM 41.2°F5.1°C 39.0°F3.9°C 92% 0.9 mph NE1.4 kmh NE 6.9 mph11.1 kmh 30.12 in1020.0 mb 0.06 in1.5 mm 0.18 in/hr4.6 mm/hr 0.07 in1.8 mm
10:39 AM 41.2°F5.1°C 38.8°F3.8°C 91% 2.0 mph E3.2 kmh E 4.9 mph7.9 kmh 30.14 in1020.7 mb 0.03 in0.8 mm 0.00 in/hr0.0 mm/hr 0.04 in1.0 mm
10:29 AM 41.2°F5.1°C 38.8°F3.8°C 91% 2.0 mph N3.2 kmh N 6.9 mph11.1 kmh 30.13 in1020.3 mb 0.03 in0.8 mm 0.06 in/hr1.5 mm/hr 0.03 in0.8 mm
10:19 AM 41.4°F5.2°C 38.7°F3.7°C 90% 2.0 mph NE3.2 kmh NE 6.9 mph11.1 kmh 30.14 in1020.7 mb 0.02 in0.5 mm 0.00 in/hr0.0 mm/hr 0.02 in0.5 mm
10:09 AM 41.5°F5.3°C 38.5°F3.6°C 89% 2.0 mph NNE3.2 kmh NNE 6.0 mph9.7 kmh 30.14 in1020.7 mb 0.02 in0.5 mm 0.01 in/hr0.3 mm/hr 0.02 in0.5 mm
09:59 AM 42.1°F5.6°C 38.5°F3.6°C 87% Calm Calm 2.9 mph4.7 kmh 30.16 in1021.3 mb 0.01 in0.3 mm 0.00 in/hr0.0 mm/hr 0.01 in0.3 mm
09:49 AM 42.4°F5.8°C 38.3°F3.5°C 85% 0.9 mph NW1.4 kmh NW 2.9 mph4.7 kmh 30.17 in1021.7 mb 0.01 in0.3 mm 0.00 in/hr0.0 mm/hr 0.01 in0.3 mm
09:39 AM 43.2°F6.2°C 37.8°F3.2°C 81% 0.9 mph N1.4 kmh N 4.9 mph7.9 kmh 30.19 in1022.4 mb 0.01 in0.3 mm 0.06 in/hr1.5 mm/hr 0.01 in0.3 mm
09:29 AM 43.7°F6.5°C 37.6°F3.1°C 79% 0.9 mph NW1.4 kmh NW 4.9 mph7.9 kmh 30.18 in1022.0 mb 0.00 in0.0 mm 0.00 in/hr0.0 mm/hr 0.00 in0.0 mm
09:19 AM 44.1°F6.7°C 37.6°F3.1°C 78% Calm Calm 2.0 mph3.2 kmh 30.20 in1022.7 mb 0.00 in0.0 mm 0.00 in/hr0.0 mm/hr 0.00 in0.0 mm
09:09 AM 44.4°F6.9°C 37.4°F3.0°C 76% Calm Calm 0.9 mph1.4 kmh 30.19 in1022.4 mb 0.00 in0.0 mm 0.00 in/hr0.0 mm/hr 0.00 in0.0 mm
08:59 AM 44.6°F7.0°C 36.9°F2.7°C 74% Calm Calm 0.9 mph1.4 kmh 30.19 in1022.4 mb 0.00 in0.0 mm 0.00 in/hr0.0 mm/hr 0.00 in0.0 mm
08:49 AM 44.8°F7.1°C 37.0°F2.8°C 74% Calm Calm 0.9 mph1.4 kmh 30.20 in1022.7 mb 0.00 in0.0 mm 0.00 in/hr0.0 mm/hr 0.00 in0.0 mm
08:39 AM 44.8°F7.1°C 36.0°F2.2°C 71% Calm Calm -- 30.20 in1022.7 mb 0.00 in0.0 mm 0.00 in/hr0.0 mm/hr 0.00 in0.0 mm
08:29 AM 44.8°F7.1°C 35.6°F2.0°C 70% Calm Calm 0.9 mph1.4 kmh 30.19 in1022.4 mb 0.00 in0.0 mm 0.00 in/hr0.0 mm/hr 0.00 in0.0 mm
08:19 AM 44.8°F7.1°C 36.0°F2.2°C 71% Calm Calm -- 30.18 in1022.0 mb 0.00 in0.0 mm 0.00 in/hr0.0 mm/hr 0.00 in0.0 mm
08:09 AM 44.8°F7.1°C 35.2°F1.8°C 69% Calm Calm 2.0 mph3.2 kmh 30.15 in1021.0 mb 0.00 in0.0 mm 0.00 in/hr0.0 mm/hr 0.00 in0.0 mm
07:59 AM 44.8°F7.1°C 35.6°F2.0°C 70% Calm Calm 0.9 mph1.4 kmh 30.16 in1021.3 mb 0.00 in0.0 mm 0.00 in/hr0.0 mm/hr 0.00 in0.0 mm
07:49 AM 45.0°F7.2°C 35.4°F1.9°C 69% Calm Calm 2.0 mph3.2 kmh 30.16 in1021.3 mb 0.00 in0.0 mm 0.00 in/hr0.0 mm/hr 0.00 in0.0 mm
07:39 AM 45.3°F7.4°C 35.8°F2.1°C 69% Calm Calm 2.0 mph3.2 kmh 30.15 in1021.0 mb 0.00 in0.0 mm 0.00 in/hr0.0 mm/hr 0.00 in0.0 mm
07:29 AM 45.5°F7.5°C 34.3°F1.3°C 65% 0.9 mph E1.4 kmh E 3.0 mph4.8 kmh 30.16 in1021.3 mb 0.00 in0.0 mm 0.00 in/hr0.0 mm/hr 0.00 in0.0 mm
07:19 AM 45.7°F7.6°C 34.5°F1.4°C 65% 0.9 mph NE1.4 kmh NE 2.9 mph4.7 kmh 30.16 in1021.3 mb 0.00 in0.0 mm 0.00 in/hr0.0 mm/hr 0.00 in0.0 mm
07:09 AM 45.7°F7.6°C 34.2°F1.2°C 64% 0.9 mph NE1.4 kmh NE 2.9 mph4.7 kmh 30.16 in1021.3 mb 0.00 in0.0 mm 0.00 in/hr0.0 mm/hr 0.00 in0.0 mm
06:59 AM 45.9°F7.7°C 34.0°F1.1°C 63% Calm Calm 3.0 mph4.8 kmh 30.17 in1021.7 mb 0.00 in0.0 mm 0.00 in/hr0.0 mm/hr 0.00 in0.0 mm
06:49 AM 46.0°F7.8°C 34.2°F1.2°C 63% Calm Calm 2.0 mph3.2 kmh 30.18 in1022.0 mb 0.00 in0.0 mm 0.00 in/hr0.0 mm/hr 0.00 in0.0 mm
06:39 AM 46.2°F7.9°C 34.3°F1.3°C 63% Calm Calm 2.0 mph3.2 kmh 30.18 in1022.0 mb 0.00 in0.0 mm 0.00 in/hr0.0 mm/hr 0.00 in0.0 mm
06:29 AM 46.2°F7.9°C 34.0°F1.1°C 62% 0.9 mph WNW1.4 kmh WNW 2.9 mph4.7 kmh 30.17 in1021.7 mb 0.00 in0.0 mm 0.00 in/hr0.0 mm/hr 0.00 in0.0 mm
06:19 AM 46.2°F7.9°C 34.0°F1.1°C 62% Calm Calm 0.9 mph1.4 kmh 30.17 in1021.7 mb 0.00 in0.0 mm 0.00 in/hr0.0 mm/hr 0.00 in0.0 mm
06:09 AM 46.4°F8.0°C 33.6°F0.9°C 61% Calm Calm 0.9 mph1.4 kmh 30.16 in1021.3 mb 0.00 in0.0 mm 0.00 in/hr0.0 mm/hr 0.00 in0.0 mm
05:59 AM 46.4°F8.0°C 33.6°F0.9°C 61% Calm Calm 3.0 mph4.8 kmh 30.16 in1021.3 mb 0.00 in0.0 mm 0.00 in/hr0.0 mm/hr 0.00 in0.0 mm
05:49 AM 46.4°F8.0°C 34.2°F1.2°C 62% Calm Calm 0.9 mph1.4 kmh 30.15 in1021.0 mb 0.00 in0.0 mm 0.00 in/hr0.0 mm/hr 0.00 in0.0 mm
05:39 AM 46.4°F8.0°C 34.2°F1.2°C 62% Calm Calm 0.9 mph1.4 kmh 30.15 in1021.0 mb 0.00 in0.0 mm 0.00 in/hr0.0 mm/hr 0.00 in0.0 mm
05:29 AM 46.6°F8.1°C 33.8°F1.0°C 61% Calm Calm 2.0 mph3.2 kmh 30.16 in1021.3 mb 0.00 in0.0 mm 0.00 in/hr0.0 mm/hr 0.00 in0.0 mm
05:19 AM 46.8°F8.2°C 33.6°F0.9°C 60% Calm Calm 2.0 mph3.2 kmh 30.16 in1021.3 mb 0.00 in0.0 mm 0.00 in/hr0.0 mm/hr 0.00 in0.0 mm
05:09 AM 46.8°F8.2°C 33.6°F0.9°C 60% Calm Calm 0.9 mph1.4 kmh 30.17 in1021.7 mb 0.00 in0.0 mm 0.00 in/hr0.0 mm/hr 0.00 in0.0 mm
04:59 AM 46.9°F8.3°C 33.8°F1.0°C 60% 0.9 mph W1.4 kmh W 4.0 mph6.4 kmh 30.18 in1022.0 mb 0.00 in0.0 mm 0.00 in/hr0.0 mm/hr 0.00 in0.0 mm
04:49 AM 46.9°F8.3°C 33.8°F1.0°C 60% 0.9 mph N1.4 kmh N 4.0 mph6.4 kmh 30.18 in1022.0 mb 0.00 in0.0 mm 0.00 in/hr0.0 mm/hr 0.00 in0.0 mm
04:39 AM 46.9°F8.3°C 33.8°F1.0°C 60% Calm Calm 2.0 mph3.2 kmh 30.19 in1022.4 mb 0.00 in0.0 mm 0.00 in/hr0.0 mm/hr 0.00 in0.0 mm
04:29 AM 46.9°F8.3°C 33.8°F1.0°C 60% Calm Calm 2.0 mph3.2 kmh 30.19 in1022.4 mb 0.00 in0.0 mm 0.00 in/hr0.0 mm/hr 0.00 in0.0 mm
04:19 AM 46.9°F8.3°C 33.8°F1.0°C 60% Calm Calm 2.9 mph4.7 kmh 30.19 in1022.4 mb 0.00 in0.0 mm 0.00 in/hr0.0 mm/hr 0.00 in0.0 mm
04:09 AM 46.9°F8.3°C 33.8°F1.0°C 60% 0.9 mph NNE1.4 kmh NNE 2.9 mph4.7 kmh 30.19 in1022.4 mb 0.00 in0.0 mm 0.00 in/hr0.0 mm/hr 0.00 in0.0 mm
03:59 AM 46.9°F8.3°C 34.2°F1.2°C 61% Calm Calm 2.0 mph3.2 kmh 30.19 in1022.4 mb 0.00 in0.0 mm 0.00 in/hr0.0 mm/hr 0.00 in0.0 mm
03:49 AM 46.9°F8.3°C 34.2°F1.2°C 61% 0.9 mph NNW1.4 kmh NNW 2.9 mph4.7 kmh 30.18 in1022.0 mb 0.00 in0.0 mm 0.00 in/hr0.0 mm/hr 0.00 in0.0 mm
03:39 AM 46.9°F8.3°C 34.2°F1.2°C 61% Calm Calm 0.9 mph1.4 kmh 30.19 in1022.4 mb 0.00 in0.0 mm 0.00 in/hr0.0 mm/hr 0.00 in0.0 mm
03:29 AM 47.1°F8.4°C 34.0°F1.1°C 60% Calm Calm 2.9 mph4.7 kmh 30.18 in1022.0 mb 0.00 in0.0 mm 0.00 in/hr0.0 mm/hr 0.00 in0.0 mm
03:19 AM 47.5°F8.6°C 34.3°F1.3°C 60% Calm Calm 2.0 mph3.2 kmh 30.18 in1022.0 mb 0.00 in0.0 mm 0.00 in/hr0.0 mm/hr 0.00 in0.0 mm
03:09 AM 47.5°F8.6°C 33.8°F1.0°C 59% Calm Calm 0.9 mph1.4 kmh 30.18 in1022.0 mb 0.00 in0.0 mm 0.00 in/hr0.0 mm/hr 0.00 in0.0 mm
02:59 AM 47.7°F8.7°C 34.0°F1.1°C 59% Calm Calm 2.0 mph3.2 kmh 30.18 in1022.0 mb 0.00 in0.0 mm 0.00 in/hr0.0 mm/hr 0.00 in0.0 mm
02:49 AM 47.7°F8.7°C 33.6°F0.9°C 58% Calm Calm 2.9 mph4.7 kmh 30.17 in1021.7 mb 0.00 in0.0 mm 0.00 in/hr0.0 mm/hr 0.00 in0.0 mm
02:39 AM 47.8°F8.8°C 33.8°F1.0°C 58% Calm Calm 2.0 mph3.2 kmh 30.17 in1021.7 mb 0.00 in0.0 mm 0.00 in/hr0.0 mm/hr 0.00 in0.0 mm
02:29 AM 47.8°F8.8°C 33.8°F1.0°C 58% 0.9 mph WNW1.4 kmh WNW 4.0 mph6.4 kmh 30.17 in1021.7 mb 0.00 in0.0 mm 0.00 in/hr0.0 mm/hr 0.00 in0.0 mm
02:19 AM 47.1°F8.4°C 34.0°F1.1°C 60% Calm Calm 2.9 mph4.7 kmh 30.17 in1021.7 mb 0.00 in0.0 mm 0.00 in/hr0.0 mm/hr 0.00 in0.0 mm
02:09 AM 46.9°F8.3°C 35.8°F2.1°C 65% Calm Calm 0.9 mph1.4 kmh 30.17 in1021.7 mb 0.00 in0.0 mm 0.00 in/hr0.0 mm/hr 0.00 in0.0 mm
01:59 AM 46.9°F8.3°C 36.1°F2.3°C 66% Calm Calm -- 30.17 in1021.7 mb 0.00 in0.0 mm 0.00 in/hr0.0 mm/hr 0.00 in0.0 mm
01:49 AM 46.9°F8.3°C 36.1°F2.3°C 66% Calm Calm -- 30.16 in1021.3 mb 0.00 in0.0 mm 0.00 in/hr0.0 mm/hr 0.00 in0.0 mm
01:39 AM 46.8°F8.2°C 35.6°F2.0°C 65% Calm Calm 1.0 mph1.6 kmh 30.16 in1021.3 mb 0.00 in0.0 mm 0.00 in/hr0.0 mm/hr 0.00 in0.0 mm
01:29 AM 46.8°F8.2°C 35.6°F2.0°C 65% Calm Calm -- 30.15 in1021.0 mb 0.00 in0.0 mm 0.00 in/hr0.0 mm/hr 0.00 in0.0 mm
01:19 AM 46.8°F8.2°C 35.6°F2.0°C 65% Calm Calm -- 30.14 in1020.7 mb 0.00 in0.0 mm 0.00 in/hr0.0 mm/hr 0.00 in0.0 mm
01:09 AM 46.8°F8.2°C 36.0°F2.2°C 66% Calm Calm -- 30.14 in1020.7 mb 0.00 in0.0 mm 0.00 in/hr0.0 mm/hr 0.00 in0.0 mm
12:59 AM 46.9°F8.3°C 35.4°F1.9°C 64% Calm Calm -- 30.14 in1020.7 mb 0.00 in0.0 mm 0.00 in/hr0.0 mm/hr 0.00 in0.0 mm
12:49 AM 47.1°F8.4°C 34.7°F1.5°C 62% Calm Calm -- 30.16 in1021.3 mb 0.00 in0.0 mm 0.00 in/hr0.0 mm/hr 0.00 in0.0 mm
12:39 AM 47.1°F8.4°C 34.3°F1.3°C 61% Calm Calm -- 30.15 in1021.0 mb 0.00 in0.0 mm 0.00 in/hr0.0 mm/hr 0.00 in0.0 mm
12:29 AM 47.1°F8.4°C 34.7°F1.5°C 62% Calm Calm -- 30.15 in1021.0 mb 0.00 in0.0 mm 0.00 in/hr0.0 mm/hr 0.00 in0.0 mm
12:19 AM 47.1°F8.4°C 34.7°F1.5°C 62% Calm Calm -- 30.14 in1020.7 mb 0.00 in0.0 mm 0.00 in/hr0.0 mm/hr 0.00 in0.0 mm
12:09 AM 47.3°F8.5°C 34.9°F1.6°C 62% Calm Calm -- 30.14 in1020.7 mb 0.00 in0.0 mm 0.00 in/hr0.0 mm/hr 0.00 in0.0 mm